1487520000.33,57358,14.75,73248.3,-9.57,-43.87,-44.07,0,*58
1487520001.61,57359,14.75,73244.8,-9.57,-44.01,-44.21,0,*54
1487520002.86,57360,14.75,73246.0,-9.57,-44.01,-44.07,0,*5A
1487520004.08,57361,14.75,73250.3,-9.57,-43.87,-44.07,0,*52
1487520005.3,57362,14.75,73244.3,-9.57,-43.87,-44.07,0,*51
1487520006.53,57363,14.75,73244.0,-9.57,-43.87,-44.07,0,*50
1487520007.75,57364,14.75,73244.3,-9.59,-44.13,-44.27,0,*51
1487520008.98,57365,14.75,73244.3,-9.59,-43.95,-44.13,0,*5E
1487520010.18,57366,14.75,73244.0,-9.59,-43.87,-44.07,0,*5B
1487520011.38,57367,14.75,73246.3,-9.59,-44.07,-44.27,0,*57
1487520012.61,57368,14.75,73246.5,-9.61,-44.07,-44.27,0,*53
1487520013.81,57369,14.75,73246.3,-9.59,-43.95,-44.27,0,*55
1487520015.07,57370,14.75,73242.8,-9.61,-43.95,-44.13,0,*51
1487520016.34,57371,14.75,73244.0,-9.61,-44.13,-44.13,0,*59
1487520017.6,57372,14.75,73248.0,-9.61,-44.07,-44.33,0,*5D
1487520018.87,57373,14.75,73250.5,-9.61,-44.33,-44.33,0,*5B
1487520020.13,57374,14.75,73248.0,-9.61,-44.27,-44.33,0,*59
1487520021.36,57375,14.75,73246.8,-9.61,-44.07,-44.27,0,*5F
1487520022.62,57376,14.75,73244.3,-9.61,-44.13,-44.27,0,*59
1487520023.86,57377,14.75,73246.5,-9.63,-44.13,-44.33,0,*5F
1487520025.12,57378,14.75,73246.8,-9.63,-44.21,-44.33,0,*51
1487520026.37,57379,14.75,73244.3,-9.63,-44.13,-44.33,0,*51
1487520027.59,57380,14.75,73244.5,-9.63,-44.21,-44.41,0,*53
1487520028.84,57381,14.75,73250.5,-9.63,-44.13,-44.33,0,*56
1487520030.09,57382,14.75,73246.0,-9.63,-43.81,-44.21,0,*5A
1487520031.32,57383,14.75,73244.0,-9.63,-43.95,-44.13,0,*5F
1487520032.57,57384,14.75,73246.8,-9.63,-44.13,-44.21,0,*50
1487520033.82,57385,14.75,73242.3,-9.63,-44.01,-44.21,0,*52
1487520035.07,57386,14.75,73244.5,-9.65,-43.95,-44.21,0,*5D
1487520036.35,57387,14.75,73244.3,-9.65,-44.21,-44.33,0,*57
1487520037.6,57388,14.75,73246.0,-9.65,-44.33,-44.41,0,*5E
1487520038.85,57389,14.75,73246.3,-9.65,-44.33,-44.41,0,*5F
1487520040.07,57390,14.75,73248.3,-9.63,-44.33,-44.41,0,*51
1487520041.32,57391,14.75,73250.0,-9.65,-44.13,-44.41,0,*54
1487520042.6,57392,14.75,73240.5,-9.65,-44.21,-44.21,0,*50
1487520043.83,57393,14.75,73244.3,-9.67,-44.01,-44.27,0,*57
1487520045.06,57394,14.75,73244.0,-9.67,-44.07,-44.21,0,*50
1487520046.26,57395,14.75,73242.8,-9.67,-44.07,-44.27,0,*57
1487520047.48,57396,14.75,73244.3,-9.71,-44.01,-44.27,0,*55
1487520048.73,57397,14.75,73244.5,-9.67,-43.81,-44.21,0,*5A
1487520049.99,57398,14.75,73244.3,-9.67,-44.01,-44.21,0,*5A
1487520051.22,57399,14.75,73246.3,-9.71,-44.21,-44.41,0,*58
1487520052.42,57400,14.75,73248.0,-9.71,-44.27,-44.41,0,*59
1487520053.62,57401,14.75,73246.8,-9.67,-44.07,-44.27,0,*5D
1487520054.85,57402,14.75,73248.8,-9.71,-44.07,-44.21,0,*5F
1487520056.05,57403,14.75,73244.3,-9.67,-44.07,-44.27,0,*5F
1487520057.32,57404,14.75,73246.8,-9.73,-44.13,-44.33,0,*5D
1487520058.6,57405,14.75,73246.0,-9.73,-44.13,-44.33,0,*5C
1487520059.8,57406,14.75,73246.3,-9.71,-44.07,-44.27,0,*5D
1487520061.02,57407,14.75,73242.8,-9.71,-43.81,-44.07,0,*57
1487520062.25,57408,14.75,73246.3,-9.71,-43.75,-44.01,0,*55
1487520063.5,57409,14.75,73244.0,-9.71,-44.01,-44.21,0,*52
1487520064.75,57410,14.75,73246.8,-9.73,-44.07,-44.33,0,*5D
1487520066.03,57411,14.75,73246.3,-9.73,-44.13,-44.33,0,*59
1487520067.25,57412,14.75,73244.3,-9.75,-44.27,-44.47,0,*58
1487520068.53,57413,14.75,73244.8,-9.73,-44.13,-44.13,0,*59
1487520069.76,57414,14.75,73246.3,-9.73,-44.07,-44.27,0,*5C
1487520071.03,57415,14.69,73240.0,-9.73,-44.13,-44.33,0,*5D
1487520072.28,57416,14.75,73246.8,-9.73,-44.27,-44.47,0,*5A
1487520073.53,57417,14.75,73242.3,-9.75,-44.13,-44.33,0,*59
1487520074.73,57418,14.75,73246.8,-9.75,-43.95,-44.27,0,*5A
1487520075.94,57419,14.75,73242.3,-9.75,-43.95,-44.27,0,*5B
1487520077.14,57420,14.75,73246.8,-9.75,-44.07,-44.07,0,*5F
1487520078.39,57421,14.75,73246.8,-9.75,-44.13,-44.33,0,*5C
1487520079.68,57422,14.75,73246.0,-9.77,-44.21,-44.33,0,*5C
1487520080.94,57423,14.75,73244.0,-9.77,-44.21,-44.41,0,*58
1487520082.2,57424,14.75,73246.3,-9.77,-44.21,-44.53,0,*5C
1487520083.45,57425,14.75,73246.5,-9.77,-44.33,-44.53,0,*5E
1487520084.68,57426,14.75,73246.0,-9.79,-44.21,-44.53,0,*50
1487520085.9,57427,14.75,73240.5,-9.79,-44.13,-44.41,0,*53
1487520087.17,57428,14.75,73244.5,-9.77,-43.95,-44.21,0,*5D
1487520088.39,57429,14.75,73244.5,-9.79,-43.87,-44.13,0,*50
1487520089.67,57430,14.75,73244.0,-9.77,-44.01,-44.21,0,*5E
1487520090.96,57431,14.75,73248.8,-9.77,-44.13,-44.33,0,*5F
1487520092.19,57432,14.75,73248.3,-9.79,-43.95,-44.21,0,*58
1487520093.44,57433,14.75,73248.8,-9.79,-44.01,-44.33,0,*50
1487520094.7,57434,14.75,73246.8,-9.77,-43.95,-44.13,0,*51
1487520095.92,57435,14.75,73246.3,-9.79,-43.87,-44.13,0,*5D
1487520097.18,57436,14.75,73246.3,-9.79,-44.01,-44.21,0,*56
1487520098.43,57437,14.75,73246.8,-9.77,-43.95,-44.33,0,*50
1487520099.69,57438,14.75,73248.5,-9.79,-44.01,-44.33,0,*5B
1487520100.91,57439,14.75,73246.8,-9.79,-43.87,-44.13,0,*51
1487520102.16,57440,14.75,73248.0,-9.83,-44.01,-44.27,0,*54
1487520103.39,57441,14.75,73246.0,-9.81,-44.01,-44.41,0,*57
1487520104.64,57442,14.75,73246.0,-9.81,-44.21,-44.47,0,*50
1487520105.84,57443,14.75,73248.0,-9.81,-44.07,-44.41,0,*53
1487520107.09,57444,14.75,73248.3,-9.83,-44.01,-44.41,0,*50
1487520108.29,57445,14.75,73248.5,-9.81,-43.95,-44.27,0,*59
1487520109.53,57446,14.75,73248.3,-9.81,-44.01,-44.47,0,*56
1487520110.78,57447,14.75,73248.5,-9.83,-44.01,-44.27,0,*53
1487520112.05,57448,14.75,73248.0,-9.83,-43.55,-44.47,0,*5C
1487520113.3,57449,14.75,73244.0,-9.83,-41.73,-44.21,0,*5B
1487520114.55,57450,14.75,73246.3,-9.81,-38.79,-43.81,0,*58
1487520115.81,57451,14.75,73248.5,-9.83,-34.83,-43.41,0,*5E
1487520117.04,57452,14.75,73246.3,-9.83,-35.59,-43.15,0,*5A
1487520118.29,57453,14.75,73248.3,-9.83,-36.25,-43.15,0,*53
1487520119.55,57454,14.75,73246.3,-9.83,-36.25,-43.41,0,*55
1487520120.81,57455,14.75,73244.3,-9.83,-36.25,-43.35,0,*57
1487520122.06,57456,14.75,73244.0,-9.83,-36.25,-43.41,0,*57
1487520123.29,57457,14.75,73246.0,-9.83,-36.31,-43.61,0,*51
1487520124.52,57458,14.75,73246.3,-9.81,-36.55,-43.55,0,*59
1487520125.75,57459,14.75,73246.8,-9.81,-36.49,-43.61,0,*52
1487520126.98,57460,14.75,73240.0,-9.83,-36.55,-43.61,0,*57
1487520128.24,57461,14.75,73244.3,-9.81,-36.49,-43.55,0,*5E
1487520129.48,57462,14.75,73246.0,-9.81,-36.13,-43.21,0,*51
1487520130.72,57463,14.75,73244.3,-9.81,-35.01,-43.21,0,*50
1487520131.98,57464,14.75,73242.3,-9.83,-39.59,-43.41,0,*52
1487520133.2,57465,14.75,73246.0,-9.83,-38.97,-43.01,0,*54
1487520134.43,57466,14.75,73244.8,-9.81,-38.73,-43.21,0,*5D
1487520135.65,57467,14.75,73248.0,-9.81,-38.97,-43.21,0,*56
1487520136.88,57468,14.75,73244.0,-9.83,-40.91,-43.41,0,*54
1487520138.11,57469,14.75,73246.0,-9.83,-41.11,-43.61,0,*5E
1487520139.33,57470,14.75,73248.5,-9.83,-41.11,-43.75,0,*53
1487520140.59,57471,14.75,73244.8,-9.81,-39.79,-43.81,0,*5A
1487520141.79,57472,14.75,73248.0,-9.81,-37.87,-43.75,0,*5D
1487520143.02,57473,14.75,73246.0,-9.83,-36.85,-43.75,0,*5D
1487520144.27,57474,14.75,73248.3,-9.83,-35.71,-43.21,0,*53
1487520145.52,57475,14.75,73246.0,-9.83,-36.91,-43.15,0,*58
1487520146.75,57476,14.75,73246.5,-9.83,-36.67,-43.41,0,*53
1487520147.98,57477,14.75,73244.5,-9.83,-36.31,-43.35,0,*52
1487520149.24,57478,14.75,73244.5,-9.83,-36.25,-43.35,0,*58
1487520150.47,57479,14.75,73250.0,-9.81,-36.31,-43.21,0,*5B
1487520151.67,57480,14.75,73246.5,-9.81,-36.31,-43.15,0,*5A
1487520152.9,57481,14.75,73244.3,-9.81,-36.37,-43.15,0,*5D
1487520154.1,57482,14.75,73244.3,-9.81,-35.71,-43.15,0,*5F
1487520155.31,57483,14.75,73244.5,-9.81,-37.45,-43.35,0,*59
1487520156.54,57484,14.75,73246.0,-9.83,-40.91,-43.35,0,*55
1487520157.79,57485,14.75,73244.0,-9.83,-42.37,-43.55,0,*5C
1487520159.02,57486,14.75,73244.8,-9.83,-41.41,-43.61,0,*5A
1487520160.25,57487,14.69,73244.5,-9.81,-41.29,-43.55,0,*50
1487520161.5,57488,14.75,73246.3,-9.83,-40.97,-43.41,0,*5C
1487520162.73,57489,14.75,73248.0,-9.83,-41.17,-43.61,0,*56
1487520163.96,57490,14.75,73246.5,-9.83,-40.91,-43.61,0,*51
1487520165.21,57491,14.75,73244.3,-9.83,-40.97,-43.61,0,*56
1487520166.43,57492,14.75,73244.3,-9.83,-41.11,-43.61,0,*5A
1487520167.69,57493,14.75,73246.5,-9.81,-41.35,-43.55,0,*58
1487520168.96,57494,14.75,73244.0,-9.83,-39.79,-43.35,0,*5C
1487520170.24,57495,14.75,73246.0,-9.83,-39.41,-43.55,0,*50
1487520171.52,57496,14.75,73246.0,-9.83,-39.03,-43.55,0,*55
1487520172.75,57497,14.75,73244.5,-9.83,-39.91,-43.15,0,*5B
1487520174.01,57498,14.75,73240.0,-9.83,-42.31,-43.41,0,*53
1487520175.26,57499,14.75,73242.8,-9.83,-42.37,-43.55,0,*51
1487520176.49,57500,14.75,73242.8,-9.85,-40.97,-43.41,0,*5B
1487520177.72,57501,14.75,73240.8,-9.85,-40.79,-43.61,0,*58
1487520178.96,57502,14.75,73244.8,-9.85,-37.93,-43.41,0,*5D
1487520180.19,57503,14.75,73244.0,-9.85,-36.43,-43.21,0,*56
1487520181.42,57504,14.75,73246.0,-9.85,-32.85,-42.89,0,*5C
1487520182.65,57505,14.75,73244.8,-9.85,-25.49,-42.05,0,*5F
1487520183.88,57506,14.75,73246.0,-9.85,-31.45,-42.83,0,*5B
1487520185.08,57507,14.75,73244.0,-9.85,-33.55,-43.01,0,*52
1487520186.34,57508,14.75,73244.5,-9.85,-36.61,-43.09,0,*57
1487520187.59,57509,14.75,73244.3,-9.85,-35.41,-42.83,0,*54
1487520188.84,57510,14.75,73244.0,-9.83,-34.77,-42.83,0,*5E
1487520190.09,57511,14.75,73244.5,-9.83,-35.23,-43.01,0,*54
1487520191.37,57512,14.75,73244.0,-9.83,-32.85,-42.83,0,*57
1487520192.62,57513,14.75,73246.8,-9.83,-31.05,-42.19,0,*5E
1487520193.9,57514,14.75,73246.3,-9.83,-35.35,-42.95,0,*5A
1487520195.12,57515,14.75,73246.5,-9.83,-36.07,-43.01,0,*55
1487520196.38,57516,14.69,73242.3,-9.83,-36.25,-43.01,0,*56
1487520197.65,57517,14.75,73244.0,-9.83,-36.13,-42.83,0,*59
1487520198.9,57518,14.75,73246.8,-9.83,-36.07,-42.95,0,*54
1487520200.16,57519,14.75,73246.5,-9.83,-36.25,-43.01,0,*59
1487520201.41,57520,14.75,73244.5,-9.83,-36.25,-43.01,0,*53
1487520202.64,57521,14.75,73246.5,-9.83,-36.31,-43.15,0,*52
1487520203.89,57522,14.75,73246.5,-9.83,-36.25,-43.15,0,*54
1487520205.14,57523,14.75,73246.5,-9.83,-35.89,-42.83,0,*5E
1487520206.39,57524,14.75,73246.5,-9.83,-35.59,-42.83,0,*54
1487520207.66,57525,14.75,73244.8,-9.83,-35.23,-42.83,0,*58
1487520208.89,57526,14.75,73244.3,-9.81,-34.31,-42.63,0,*55
1487520210.14,57527,14.75,73244.3,-9.83,-33.03,-42.57,0,*57
1487520211.36,57528,14.75,73246.8,-9.81,-31.01,-42.57,0,*5A
1487520212.56,57529,14.69,73242.0,-9.81,-26.61,-31.67,0,*5C
1487520213.81,57530,14.75,73244.3,-9.83,-23.13,-30.01,0,*57
1487520215.09,57531,14.75,73244.0,-9.83,-25.45,-29.51,0,*5E
1487520216.33,57532,14.75,73244.0,-9.83,-25.75,-29.79,0,*54
1487520217.59,57533,14.75,73244.5,-9.81,-27.45,-35.35,0,*53
1487520218.85,57534,14.69,73242.5,-9.83,-24.71,-38.61,0,*5E
1487520220.06,57535,14.75,73244.8,-9.81,-33.03,-42.75,0,*56
1487520221.3,57536,14.75,73246.5,-9.81,-32.45,-42.83,0,*5F
1487520222.53,57537,14.75,73244.8,-9.81,-32.23,-42.95,0,*59
1487520223.79,57538,14.75,73244.5,-9.81,-33.31,-42.95,0,*54
1487520225.02,57539,14.75,73246.8,-9.81,-33.95,-42.95,0,*5B
1487520226.25,57540,14.69,73244.0,-9.81,-33.37,-42.83,0,*5A
1487520227.54,57541,14.75,73248.8,-9.83,-32.63,-42.95,0,*5E
1487520228.79,57542,14.75,73244.8,-9.83,-32.79,-43.01,0,*5A
1487520230.02,57543,14.75,73244.3,-9.81,-33.31,-43.01,0,*54
1487520231.25,57544,14.75,73244.3,-9.81,-33.49,-43.01,0,*5C
1487520232.45,57545,14.75,73246.3,-9.79,-33.15,-42.89,0,*52
1487520233.65,57546,14.75,73244.3,-9.81,-32.39,-42.37,0,*5C
1487520234.85,57547,14.75,73248.3,-9.81,-33.03,-42.63,0,*54
1487520236.08,57548,14.75,73248.0,-9.81,-32.13,-42.57,0,*5C
1487520237.28,57549,14.75,73246.3,-9.81,-31.33,-42.37,0,*5A
1487520238.48,57550,14.75,73244.3,-9.81,-31.33,-42.51,0,*52
1487520239.7,57551,14.75,73246.0,-9.79,-31.33,-42.45,0,*51
1487520240.93,57552,14.75,73248.8,-9.81,-31.33,-42.57,0,*56
1487520242.16,57553,14.75,73248.3,-9.81,-31.39,-42.63,0,*5A
1487520243.39,57554,14.75,73250.5,-9.81,-31.39,-42.63,0,*5D
1487520244.65,57555,14.75,73244.3,-9.81,-33.49,-42.95,0,*50
1487520245.9,57556,14.75,73248.8,-9.81,-32.75,-42.83,0,*5A
1487520247.15,57557,14.75,73246.8,-9.79,-33.27,-42.57,0,*53
1487520248.42,57558,14.69,73244.5,-9.79,-32.75,-42.31,0,*5A
1487520249.67,57559,14.75,73248.5,-9.79,-32.79,-42.45,0,*54
1487520250.9,57560,14.75,73248.5,-9.79,-32.39,-42.45,0,*5A
1487520252.16,57561,14.75,73246.0,-9.79,-32.19,-42.31,0,*5A
1487520253.36,57562,14.75,73246.8,-9.79,-32.57,-42.25,0,*56
1487520254.62,57563,14.75,73246.5,-9.79,-32.07,-42.31,0,*57
1487520255.86,57564,14.75,73250.5,-9.79,-32.01,-42.45,0,*55
1487520257.11,57565,14.75,73246.0,-9.77,-32.35,-42.31,0,*5E
1487520258.37,57566,14.75,73244.8,-9.77,-32.01,-42.45,0,*59
1487520259.63,57567,14.69,73244.5,-9.77,-32.01,-42.57,0,*5B
1487520260.89,57568,14.69,73244.5,-9.77,-31.61,-42.25,0,*54
1487520262.18,57569,14.75,73246.3,-9.77,-30.95,-42.05,0,*5D
1487520263.41,57570,14.75,73246.8,-9.77,-31.17,-41.87,0,*57
1487520264.67,57571,14.75,73248.3,-9.77,-31.17,-42.05,0,*5F
1487520265.92,57572,14.69,73242.5,-9.75,-31.39,-42.19,0,*5F
1487520267.13,57573,14.75,73248.8,-9.75,-31.79,-41.99,0,*51
1487520268.36,57574,14.75,73250.8,-9.75,-31.11,-41.87,0,*57
1487520269.62,57575,14.75,73250.3,-9.73,-31.57,-41.99,0,*5D
1487520270.84,57576,14.75,73244.3,-9.75,-31.29,-42.05,0,*57
1487520272.1,57577,14.75,73244.5,-9.73,-31.23,-41.99,0,*5C
1487520273.39,57578,14.75,73246.5,-9.73,-29.89,-41.67,0,*5B
1487520274.59,57579,14.75,73246.5,-9.71,-31.33,-41.99,0,*51
1487520275.79,57580,14.75,73246.0,-9.71,-31.79,-42.37,0,*5E
1487520277.01,57581,14.69,73244.5,-9.71,-31.51,-42.37,0,*55
1487520278.26,57582,14.75,73248.3,-9.73,-32.29,-42.37,0,*58
1487520279.46,57583,14.75,73246.8,-9.71,-33.55,-42.75,0,*57
1487520280.69,57584,14.75,73250.0,-9.71,-33.49,-42.63,0,*5A
1487520281.9,57585,14.75,73244.5,-9.67,-32.57,-42.63,0,*52
1487520283.15,57586,14.75,73246.8,-9.67,-33.31,-42.57,0,*57
1487520284.38,57587,14.75,73244.8,-9.71,-32.69,-42.45,0,*5E
1487520285.57,57588,14.75,73248.8,-9.71,-31.05,-42.13,0,*5B
1487520286.79,57589,14.75,73244.3,-9.71,-35.89,-42.83,0,*53
1487520288.0,57590,14.75,73246.8,-9.71,-38.55,-43.15,0,*59
1487520289.22,57591,14.75,73246.8,-9.71,-37.63,-43.15,0,*52
1487520290.42,57592,14.75,73244.0,-9.71,-38.05,-43.15,0,*5E
1487520291.7,57593,14.75,73246.3,-9.73,-37.69,-43.09,0,*55
1487520292.93,57594,14.75,73242.8,-9.71,-37.99,-43.35,0,*50
1487520294.14,57595,14.75,73244.5,-9.71,-38.35,-43.35,0,*58
1487520295.34,57596,14.75,73242.8,-9.75,-38.43,-43.49,0,*55
1487520296.6,57597,14.75,73244.0,-9.73,-38.23,-43.41,0,*5C
1487520297.85,57598,14.75,73246.3,-9.73,-38.29,-43.49,0,*51
1487520299.13,57599,14.75,73240.5,-9.73,-38.29,-43.29,0,*56
1487520300.38,57600,14.75,73242.3,-9.75,-38.67,-43.21,0,*51
1487520301.64,57601,14.75,73242.3,-9.73,-38.43,-43.09,0,*5A
1487520302.92,57602,14.75,73246.8,-9.73,-38.29,-43.09,0,*55
1487520304.19,57603,14.75,73246.5,-9.73,-38.11,-43.21,0,*55
1487520305.44,57604,14.75,73244.5,-9.73,-38.05,-43.21,0,*57
1487520306.7,57605,14.75,73244.0,-9.73,-38.61,-43.21,0,*54
1487520307.9,57606,14.75,73242.0,-9.75,-38.43,-43.01,0,*53
1487520309.1,57607,14.75,73242.3,-9.75,-38.05,-43.01,0,*50
1487520310.35,57608,14.75,73240.5,-9.73,-38.67,-43.01,0,*5D
1487520311.58,57609,14.75,73240.5,-9.73,-38.05,-43.01,0,*58
1487520312.84,57610,14.75,73244.0,-9.73,-38.43,-43.09,0,*5A
1487520314.09,57611,14.75,73244.5,-9.73,-38.49,-43.01,0,*59
1487520315.37,57612,14.75,73240.8,-9.73,-38.23,-43.09,0,*5E
1487520316.6,57613,14.75,73242.0,-9.73,-38.73,-43.01,0,*52
1487520317.85,57614,14.69,73242.8,-9.75,-37.51,-43.09,0,*54
1487520319.08,57615,14.75,73242.0,-9.75,-37.45,-43.09,0,*50
1487520320.31,57616,14.75,73240.0,-9.75,-37.75,-43.21,0,*5A
1487520321.54,57617,14.75,73246.8,-9.75,-36.25,-42.89,0,*5C
1487520322.8,57618,14.75,73242.8,-9.75,-36.61,-43.09,0,*5A
1487520324.03,57619,14.75,73246.3,-9.73,-36.97,-43.01,0,*5C
1487520325.24,57620,14.75,73246.0,-9.75,-31.45,-41.87,0,*54
1487520326.49,57621,14.75,73244.8,-9.73,-31.05,-42.19,0,*53
1487520327.72,57622,14.75,73248.5,-9.73,-31.29,-42.25,0,*51
1487520328.94,57623,14.69,73246.8,-9.73,-31.67,-42.37,0,*59
1487520330.17,57624,14.75,73250.8,-9.73,-31.45,-42.37,0,*5E
1487520331.42,57625,14.75,73246.8,-9.73,-30.89,-42.25,0,*5D
1487520332.67,57626,14.75,73246.8,-9.73,-29.73,-41.87,0,*58
1487520333.9,57627,14.75,73244.8,-9.75,-30.05,-42.37,0,*5E
1487520335.14,57628,14.69,73242.8,-9.73,-35.65,-42.89,0,*51
1487520336.36,57629,14.75,73244.3,-9.73,-35.59,-42.89,0,*5F
1487520337.6,57630,14.69,73246.0,-9.73,-36.97,-43.01,0,*57
1487520338.85,57631,14.69,73242.3,-9.73,-37.57,-43.09,0,*53
1487520340.13,57632,14.75,73244.8,-9.73,-38.49,-43.21,0,*5A
1487520341.36,57633,14.75,73246.8,-9.73,-36.43,-43.01,0,*5D
1487520342.61,57634,14.75,73246.5,-9.73,-37.09,-43.01,0,*55
1487520343.87,57635,14.75,73244.5,-9.73,-39.47,-43.21,0,*52
1487520345.13,57636,14.75,73250.5,-9.73,-39.09,-43.21,0,*5B
1487520346.41,57637,14.75,73246.0,-9.73,-39.23,-43.09,0,*58
1487520347.63,57638,14.69,73244.0,-9.75,-39.29,-43.01,0,*53
1487520348.89,57639,14.75,73246.0,-9.73,-39.65,-43.09,0,*54
1487520350.18,57640,14.69,73242.8,-9.73,-39.41,-43.09,0,*5C
1487520351.46,57641,14.75,73244.5,-9.73,-39.59,-43.29,0,*56
1487520352.72,57642,14.75,73244.8,-9.73,-39.65,-43.09,0,*58
1487520353.98,57643,14.75,73246.3,-9.73,-39.65,-43.09,0,*59
1487520355.25,57644,14.75,73244.8,-9.75,-39.59,-43.09,0,*57
1487520356.54,57645,14.69,73242.5,-9.73,-39.59,-43.09,0,*50
1487520357.79,57646,14.75,73246.0,-9.73,-39.65,-43.21,0,*56
1487520359.05,57647,14.69,73242.0,-9.73,-39.09,-43.21,0,*5D
1487520360.31,57648,14.69,73242.3,-9.73,-39.09,-43.09,0,*58
1487520361.59,57649,14.75,73242.3,-9.73,-39.03,-43.09,0,*53
1487520362.87,57650,14.75,73242.8,-9.73,-39.23,-43.09,0,*59
1487520364.15,57651,14.75,73238.3,-9.73,-39.03,-43.09,0,*5A
1487520365.41,57652,14.75,73240.0,-9.73,-39.47,-43.21,0,*53
1487520366.66,57653,14.75,73242.8,-9.73,-39.85,-43.21,0,*5C
1487520367.92,57654,14.75,73238.5,-9.75,-40.09,-43.29,0,*5F
1487520369.16,57655,14.75,73236.8,-9.75,-40.41,-43.41,0,*5C
1487520370.35,57656,14.75,73236.3,-9.71,-40.53,-43.35,0,*5B
1487520371.58,57657,14.75,73236.8,-9.73,-40.47,-43.61,0,*5C
1487520372.83,57658,14.69,73236.8,-9.73,-40.21,-43.49,0,*59
1487520374.06,57659,14.69,73238.0,-9.73,-37.57,-43.01,0,*55
1487520375.31,57660,14.69,73236.8,-9.73,-37.09,-43.01,0,*54
1487520376.59,57661,14.75,73238.5,-9.73,-37.51,-43.09,0,*50
1487520377.82,57662,14.75,73240.3,-9.73,-37.33,-43.01,0,*5F
1487520379.08,57663,14.75,73242.5,-9.73,-34.65,-42.89,0,*5F
1487520380.33,57664,14.69,73236.3,-9.73,-33.37,-42.83,0,*52
1487520381.58,57665,14.75,73242.3,-9.73,-35.83,-42.89,0,*50
1487520382.81,57666,14.69,73238.0,-9.71,-33.77,-42.75,0,*5F
1487520384.09,57667,14.75,73240.5,-9.73,-34.31,-42.83,0,*50
1487520385.34,57668,14.75,73242.8,-9.73,-35.65,-42.89,0,*55
1487520386.62,57669,14.75,73242.8,-9.73,-33.77,-42.69,0,*5F
1487520387.87,57670,14.75,73240.0,-9.73,-30.23,-41.67,0,*58
1487520389.1,57671,14.75,73242.0,-9.75,-30.05,-41.61,0,*5D
1487520390.35,57672,14.75,73246.3,-9.73,-30.33,-41.67,0,*5B
1487520391.6,57673,14.75,73246.3,-9.73,-30.23,-41.81,0,*53
1487520392.82,57674,14.75,73244.8,-9.73,-30.33,-41.49,0,*51
1487520394.08,57675,14.75,73244.8,-9.71,-30.17,-41.55,0,*59
1487520395.28,57676,14.75,73244.0,-9.71,-30.67,-41.61,0,*5A
1487520396.51,57677,14.69,73240.3,-9.71,-30.01,-41.41,0,*59
1487520397.72,57678,14.75,73246.0,-9.71,-30.55,-42.13,0,*53
1487520398.97,57679,14.75,73244.3,-9.71,-39.41,-43.21,0,*5E
1487520400.17,57680,14.75,73240.5,-9.67,-41.11,-43.61,0,*51
1487520401.4,57681,14.75,73244.8,-9.71,-41.17,-43.55,0,*56
1487520402.63,57682,14.69,73242.0,-9.71,-42.45,-43.61,0,*56
1487520403.83,57683,14.69,73246.0,-9.71,-41.61,-43.41,0,*50
1487520405.09,57684,14.69,73244.3,-9.71,-35.95,-42.95,0,*57
1487520406.32,57685,14.75,73246.0,-9.71,-37.27,-42.95,0,*5D
1487520407.55,57686,14.69,73246.5,-9.71,-36.73,-42.83,0,*59
1487520408.78,57687,14.69,73244.5,-9.71,-36.85,-42.83,0,*51
1487520410.0,57688,14.69,73242.5,-9.71,-36.85,-42.83,0,*5E
1487520411.25,57689,14.69,73244.5,-9.71,-36.37,-42.83,0,*56
1487520412.48,57690,14.69,73244.3,-9.67,-36.19,-42.95,0,*52
1487520413.74,57691,14.69,73244.5,-9.71,-36.37,-42.95,0,*58
1487520415.0,57692,14.75,73246.5,-9.71,-37.21,-42.95,0,*5D
1487520416.26,57693,14.75,73246.8,-9.71,-37.21,-42.95,0,*5C
1487520417.46,57694,14.69,73240.0,-9.71,-37.27,-43.01,0,*51
1487520418.69,57695,14.69,73240.5,-9.67,-38.35,-42.95,0,*57
1487520419.94,57696,14.69,73240.8,-9.67,-38.67,-42.95,0,*53
1487520421.16,57697,14.69,73242.0,-9.71,-38.67,-43.01,0,*59
1487520422.4,57698,14.69,73242.3,-9.71,-38.61,-42.95,0,*5C
1487520423.6,57699,14.69,73240.3,-9.67,-38.61,-43.15,0,*53
1487520424.81,57700,14.69,73240.3,-9.67,-38.85,-43.15,0,*58
1487520426.05,57701,14.69,73240.5,-9.71,-34.59,-42.95,0,*5A
1487520427.28,57702,14.69,73240.3,-9.67,-32.07,-42.75,0,*5D
1487520428.53,57703,14.69,73242.3,-9.67,-32.07,-42.57,0,*5C
1487520429.75,57704,14.69,73242.5,-9.71,-32.57,-42.57,0,*59
1487520431.01,57705,14.69,73242.8,-9.67,-34.31,-42.83,0,*50
1487520432.26,57706,14.69,73242.5,-9.67,-33.49,-42.83,0,*5B
1487520433.51,57707,14.69,73242.3,-9.67,-33.49,-42.83,0,*5A
1487520434.74,57708,14.69,73240.5,-9.71,-33.67,-42.95,0,*59
1487520435.99,57709,14.75,73244.3,-9.71,-33.31,-42.83,0,*5C
1487520437.24,57710,14.69,73242.0,-9.67,-32.29,-42.83,0,*5B
1487520438.49,57711,14.69,73244.0,-9.71,-31.95,-42.83,0,*59
1487520439.74,57712,14.69,73242.3,-9.71,-31.91,-42.83,0,*5E
1487520440.99,57713,14.69,73242.8,-9.67,-32.45,-42.83,0,*52
1487520442.25,57714,14.69,73244.5,-9.67,-32.79,-42.95,0,*5D
1487520443.47,57715,14.69,73242.0,-9.67,-33.15,-42.95,0,*57
1487520444.7,57716,14.69,73240.3,-9.67,-34.77,-43.21,0,*59
1487520445.92,57717,14.69,73244.5,-9.67,-30.33,-42.83,0,*55
1487520447.14,57718,14.69,73246.3,-9.67,-31.01,-42.83,0,*5A
1487520448.35,57719,14.69,73240.0,-9.67,-31.33,-42.75,0,*53
1487520449.55,57720,14.69,73240.3,-9.67,-31.05,-42.75,0,*5C
1487520450.75,57721,14.69,73242.0,-9.67,-30.33,-42.75,0,*59
1487520452.0,57722,14.69,73242.5,-9.67,-30.17,-42.57,0,*5C
1487520453.23,57723,14.75,73246.5,-9.65,-29.61,-42.51,0,*50
1487520454.45,57724,14.69,73242.5,-9.67,-29.79,-42.45,0,*59
1487520455.66,57725,14.69,73242.3,-9.67,-30.11,-42.63,0,*5A
1487520456.86,57726,14.69,73244.0,-9.67,-30.67,-42.63,0,*58
1487520458.09,57727,14.69,73244.3,-9.67,-30.51,-42.63,0,*5C
1487520459.31,57728,14.69,73240.5,-9.67,-29.61,-42.45,0,*5C
1487520460.55,57729,14.69,73242.8,-9.67,-29.51,-42.63,0,*5A
1487520461.77,57730,14.69,73242.8,-9.67,-29.79,-42.45,0,*5C
1487520463.05,57731,14.69,73244.3,-9.65,-30.95,-42.57,0,*56
1487520464.27,57732,14.69,73244.5,-9.67,-31.17,-42.69,0,*51
1487520465.52,57733,14.69,73242.5,-9.67,-30.89,-42.83,0,*52
1487520466.74,57734,14.69,73242.5,-9.67,-30.33,-42.57,0,*5D
1487520468.0,57735,14.69,73240.0,-9.67,-28.75,-42.31,0,*57
1487520469.22,57736,14.69,73240.8,-9.67,-30.51,-42.75,0,*5B
1487520470.47,57737,14.69,73242.5,-9.67,-31.39,-42.83,0,*5C
1487520471.67,57738,14.69,73240.0,-9.67,-31.05,-42.75,0,*55
1487520472.89,57739,14.69,73246.0,-9.67,-31.17,-42.83,0,*5E
1487520474.15,57740,14.69,73236.8,-9.67,-31.61,-42.83,0,*51
1487520475.38,57741,14.69,73240.8,-9.67,-31.33,-42.95,0,*50
1487520476.61,57742,14.69,73236.0,-9.67,-31.17,-42.95,0,*55
1487520477.87,57743,14.69,73240.8,-9.67,-31.23,-42.95,0,*53
1487520479.11,57744,14.69,73236.3,-9.67,-31.51,-42.83,0,*56
1487520480.33,57745,14.69,73242.8,-9.67,-31.05,-42.83,0,*56
1487520481.58,57746,14.69,73240.0,-9.71,-30.73,-42.83,0,*52
1487520482.79,57747,14.69,73240.5,-9.67,-30.83,-42.75,0,*52
1487520484.01,57748,14.69,73238.5,-9.67,-30.39,-42.75,0,*5C
1487520485.23,57749,14.69,73240.3,-9.71,-31.05,-42.83,0,*5D
1487520486.45,57750,14.69,73240.3,-9.67,-31.05,-42.83,0,*52
1487520487.71,57751,14.69,73238.0,-9.71,-30.89,-42.95,0,*56
1487520488.9,57752,14.69,73242.0,-9.71,-31.01,-43.01,0,*58
1487520490.1,57753,14.69,73240.3,-9.67,-31.33,-43.01,0,*5F
1487520491.33,57754,14.69,73240.3,-9.67,-31.57,-43.15,0,*5F
1487520492.56,57755,14.69,73244.5,-9.71,-31.33,-42.95,0,*52
1487520493.79,57756,14.69,73242.5,-9.71,-29.95,-42.83,0,*53
1487520495.0,57757,14.69,73242.3,-9.67,-29.95,-42.75,0,*5C